EW3693 Weather Reports


time (UTC)temp
F
wind
direction
speed
knots
gust
knots
rain 1hr
in
rain 24hr
in
rain mn
in
humidity
%
barometer
mb
20260508041024 36 0.0 0.0 0.00 0.00 0.00 88 1021.0
20260508040025 36 0.0 0.0 0.00 0.00 0.00 87 1021.0
20260508035144 36 0.0 0.0 0.00 0.00 0.00 87 1021.1
20260508034024 36 0.0 0.0 0.00 0.00 0.00 86 1021.1
20260508033024 36 0.0 0.0 0.00 0.00 0.00 85 1021.0
20260508032024 36 0.0 0.0 0.00 0.00 0.00 86 1020.9
20260508031024 36 0.0 0.0 0.00 0.00 0.00 85 1020.8
20260508030124 36 0.0 0.0 0.00 0.00 0.00 85 1020.8
20260508025044 37 0.0 0.0 0.00 0.00 0.00 85 1020.8
20260508024024 38 0.0 0.0 0.00 0.00 0.00 84 1020.7
20260508023024 38 0.0 0.0 0.00 0.00 0.00 84 1020.7
20260508022024 38 0.0 0.0 0.00 0.00 0.00 83 1020.8
20260508021024 38 0.0 0.0 0.00 0.00 0.00 84 1020.7
20260508020044 38 0.0 0.0 0.00 0.00 0.00 83 1020.6
20260508015024 39 0.0 0.0 0.00 0.00 0.00 83 1020.6
20260508014024 39 45 0.9 3.5 0.00 0.00 0.00 83 1020.7
20260508013043 40 0.0 0.0 0.00 0.00 0.00 83 1020.6
20260508012104 40 0.0 3.5 0.00 0.00 0.00 84 1020.5
20260508011024 39 0.0 0.0 0.00 0.00 0.00 85 1020.6
20260508010024 39 0.0 0.0 0.00 0.00 0.00 86 1020.5
20260508005024 38 0.0 0.0 0.00 0.00 0.00 86 1020.6
20260508004024 38 0.0 0.0 0.00 0.00 0.00 86 1020.5
20260508003023 39 0.0 0.0 0.00 0.00 0.00 85 1020.5
20260508002024 39 0.0 0.0 0.00 0.00 0.00 85 1020.4
20260508001023 39 0.0 0.0 0.00 0.00 0.00 85 1020.4
20260508000023 39 0.0 0.0 0.00 0.00 0.00 85 1020.4
20260507235023 39 0.0 0.0 0.00 0.00 0.00 85 1020.4
20260507234023 39 0.0 0.0 0.00 0.00 0.00 85 1020.3
20260507233024 40 0.0 0.0 0.00 0.00 0.00 84 1020.4
20260507232025 40 0.0 0.0 0.00 0.00 0.00 83 1020.4
20260507231025 40 0.0 0.0 0.00 0.00 0.00 83 1020.2
20260507230025 41 0.0 0.0 0.00 0.00 0.00 82 1020.2
20260507225025 41 0.0 0.0 0.00 0.00 0.00 83 1020.2
20260507224025 41 0.0 0.0 0.00 0.00 0.00 83 1020.2
20260507223025 41 0.0 0.0 0.00 0.00 0.00 83 1020.1
20260507222025 41 0.0 0.0 0.00 0.00 0.00 82 1020.2
20260507221026 41 0.0 0.0 0.00 0.00 0.00 82 1020.1
20260507220026 41 0.0 0.0 0.00 0.00 0.00 81 1020.0
20260507215025 42 0.0 0.0 0.00 0.00 0.00 80 1020.0
20260507214046 43 0.0 0.0 0.00 0.00 0.00 79 1020.0
20260507213025 43 0.0 0.0 0.00 0.00 0.00 78 1019.9
20260507212025 43 0.0 0.0 0.00 0.00 0.00 78 1019.7
20260507211025 44 0.0 0.0 0.00 0.00 0.00 78 1019.8
20260507210025 44 0.0 0.0 0.00 0.00 0.00 77 1019.7
20260507205025 45 0.0 0.0 0.00 0.00 0.00 77 1019.6
20260507204025 45 0.0 0.0 0.00 0.00 0.00 78 1019.6
20260507203025 45 0.0 0.0 0.00 0.00 0.00 78 1019.6
20260507202025 45 0.0 0.0 0.00 0.00 0.00 77 1019.5
20260507201025 46 0.0 0.0 0.00 0.00 0.00 75 1019.3
20260507200025 46 0.0 0.0 0.00 0.00 0.00 74 1019.2
20260507195025 47 0.0 0.0 0.00 0.00 0.00 71 1019.1
20260507194025 49 0.0 0.0 0.00 0.00 0.00 63 1019.0
20260507193025 51 0.0 0.0 0.00 0.00 0.00 59 1019.0
20260507192025 51 0.0 0.0 0.00 0.00 0.00 58 1018.8
20260507191025 52 0.0 1.7 0.00 0.00 0.00 57 1018.7
20260507190025 52 113 0.9 3.5 0.00 0.00 0.00 56 1018.7
20260507185025 53 113 0.9 5.2 0.00 0.00 0.00 55 1018.5
20260507184025 54 113 3.5 7.8 0.00 0.00 0.00 54 1018.3
20260507183025 54 113 1.7 6.1 0.00 0.00 0.00 54 1018.2
20260507182025 55 0.0 0.0 0.00 0.00 0.00 54 1018.2
20260507181025 55 113 1.7 7.0 0.00 0.00 0.00 54 1018.0
20260507180025 56 113 2.6 7.0 0.00 0.00 0.00 53 1017.9
20260507175025 56 113 1.7 5.2 0.00 0.00 0.00 53 1017.9
20260507174025 56 90 2.6 7.8 0.00 0.00 0.00 53 1017.7
20260507173025 57 90 2.6 7.0 0.00 0.00 0.00 51 1017.7
20260507172025 56 90 4.3 8.7 0.00 0.00 0.00 51 1017.6
20260507171025 57 90 4.3 7.0 0.00 0.00 0.00 51 1017.5
20260507170025 57 90 4.3 8.7 0.00 0.00 0.00 51 1017.5
20260507165025 57 90 5.2 9.6 0.00 0.00 0.00 50 1017.4
20260507164025 57 90 5.2 11.3 0.00 0.00 0.00 51 1017.4
20260507163025 58 90 3.5 7.8 0.00 0.00 0.00 50 1017.3
20260507162025 58 90 4.3 9.6 0.00 0.00 0.00 50 1017.3
20260507161025 58 90 4.3 7.8 0.00 0.00 0.00 48 1017.3
20260507160024 58 90 6.1 12.2 0.00 0.00 0.00 49 1017.3
20260507155045 59 68 5.2 11.3 0.00 0.00 0.00 49 1017.2
20260507154025 59 113 3.5 7.8 0.00 0.00 0.00 49 1017.2
20260507153024 59 68 6.1 10.4 0.00 0.00 0.00 48 1017.1
20260507152024 59 90 6.1 10.4 0.00 0.00 0.00 49 1017.0
20260507151024 59 90 7.0 9.6 0.00 0.00 0.00 49 1017.0
20260507150025 60 90 6.1 9.6 0.00 0.00 0.00 49 1016.9
20260507145025 60 90 6.1 11.3 0.00 0.00 0.00 50 1016.9
20260507144024 59 90 5.2 12.2 0.00 0.00 0.00 50 1016.9
20260507143025 60 68 4.3 9.6 0.00 0.00 0.00 51 1016.9
20260507142025 60 113 5.2 9.6 0.00 0.00 0.00 49 1017.0
20260507141025 60 90 6.1 13.9 0.00 0.00 0.00 51 1016.9
20260507140104 59 68 5.2 12.2 0.00 0.00 0.00 53 1017.0
20260507135045 60 90 5.2 11.3 0.00 0.00 0.00 51 1016.9
20260507134024 60 90 7.8 13.0 0.00 0.00 0.00 52 1017.0
20260507133024 59 90 8.7 12.2 0.00 0.00 0.00 51 1017.0
20260507132024 59 90 7.8 14.8 0.00 0.00 0.00 51 1016.9
20260507131024 60 90 4.3 8.7 0.00 0.00 0.00 52 1016.8
20260507130024 60 90 5.2 10.4 0.00 0.00 0.00 53 1016.7
20260507125025 59 90 7.8 13.9 0.00 0.00 0.00 52 1016.7
20260507124024 59 68 5.2 12.2 0.00 0.00 0.00 56 1016.7
20260507123044 60 90 2.6 9.6 0.00 0.00 0.00 57 1016.6
20260507122044 58 68 4.3 10.4 0.00 0.00 0.00 58 1016.5
20260507121024 58 90 6.1 11.3 0.00 0.00 0.00 58 1016.5
20260507120025 60 90 3.5 9.6 0.00 0.00 0.00 57 1016.5
20260507115024 59 68 7.8 13.0 0.00 0.00 0.00 55 1016.4
20260507114044 59 68 7.0 13.0 0.00 0.00 0.00 54 1016.5
20260507113024 59 68 4.3 10.4 0.00 0.00 0.00 58 1016.6
20260507112024 57 90 4.3 11.3 0.00 0.00 0.00 59 1016.5
20260507111024 58 90 4.3 7.8 0.00 0.00 0.00 59 1016.4
20260507110024 57 90 6.1 11.3 0.00 0.00 0.00 61 1016.4
20260507105024 57 23 3.5 9.6 0.00 0.00 0.00 63 1016.5
20260507104024 57 90 4.3 11.3 0.00 0.00 0.00 62 1016.4
20260507103024 57 113 5.2 10.4 0.00 0.00 0.00 59 1016.3
20260507102024 57 68 6.1 13.9 0.00 0.00 0.00 60 1016.4
20260507101024 57 45 3.5 9.6 0.00 0.00 0.00 63 1016.3
20260507100024 55 90 7.0 12.2 0.00 0.00 0.00 62 1016.2
20260507095024 55 68 6.1 10.4 0.00 0.00 0.00 64 1016.1
20260507094024 55 68 5.2 10.4 0.00 0.00 0.00 68 1016.2
20260507093024 54 68 2.6 9.6 0.00 0.00 0.00 68 1016.1
20260507092024 54 45 3.5 8.7 0.00 0.00 0.00 70 1016.1
20260507091024 55 68 4.3 9.6 0.00 0.00 0.00 67 1016.0
20260507090024 53 68 6.1 12.2 0.00 0.00 0.00 70 1015.9
20260507085024 52 68 3.5 11.3 0.00 0.00 0.00 74 1016.0
20260507084044 53 68 3.5 10.4 0.00 0.00 0.00 75 1016.0
20260507083044 52 68 4.3 11.3 0.00 0.00 0.00 74 1015.9
20260507082044 52 90 5.2 12.2 0.00 0.00 0.00 73 1015.8
20260507081044 53 68 3.5 8.7 0.00 0.00 0.00 76 1015.8
20260507080024 51 68 5.2 12.2 0.00 0.00 0.00 75 1015.8
20260507075026 50 45 6.1 12.2 0.00 0.00 0.00 77 1015.7
20260507074026 50 68 6.1 11.3 0.00 0.00 0.00 77 1015.4
20260507073026 49 90 5.2 10.4 0.00 0.00 0.00 79 1015.4
20260507072026 48 90 6.1 10.4 0.00 0.00 0.00 79 1015.3
20260507071046 48 90 7.0 13.9 0.00 0.00 0.00 79 1015.2
20260507070026 48 68 7.0 11.3 0.00 0.00 0.00 80 1015.3
20260507065046 48 90 7.0 13.9 0.00 0.00 0.00 80 1015.3
20260507064026 48 90 4.3 11.3 0.00 0.00 0.00 82 1015.1
20260507063026 48 68 5.2 11.3 0.00 0.00 0.00 82 1014.9
20260507062026 48 68 6.1 9.6 0.00 0.00 0.00 82 1014.7
20260507061146 48 90 3.5 8.7 0.00 0.00 0.00 84 1014.7
20260507060026 46 68 3.5 8.7 0.00 0.00 0.00 87 1014.7
20260507055026 45 68 4.3 9.6 0.00 0.00 0.00 88 1014.5
20260507054026 45 68 3.5 8.7 0.00 0.00 0.00 88 1014.5
20260507053026 45 68 3.5 10.4 0.00 0.00 0.00 88 1014.3
20260507052026 45 68 5.2 11.3 0.00 0.00 0.00 88 1014.3
20260507051046 45 68 3.5 11.3 0.00 0.00 0.00 89 1014.1
20260507050026 45 68 2.6 7.8 0.00 0.00 0.00 89 1014.1
20260507045026 45 68 4.3 9.6 0.00 0.00 0.00 89 1013.9
20260507044026 45 68 2.6 6.1 0.00 0.00 0.00 89 1013.8
20260507043026 45 68 3.5 7.0 0.00 0.00 0.00 89 1013.6
20260507042026 45 68 3.5 8.7 0.00 0.00 0.00 89 1013.6